Date String (YYYY-MM-DD hh:mm:ss) UTC,Instrument flags,Ambient pressure (hPa),Sample flow (lpm),Bypass flow (lpm),Sample temperature (°C),Ambient temperature (°C),ASC tube jacket temperature (°C),LED temperature (°C),Box temperature (°C),Sample RH (%),Span deviation,Mass concentration (μg/m³),Mass concentration (μg/m³),Mass concentration (μg/m³)
DateTimeUTC,F1_M11,P_M11,Q1_M11,Q2_M11,T1_M11,T2_M11,T3_M11,T4_M11,T5_M11,U1_M11,ZSPAN_M11,X0_M11,X2_M11,X1_M11
2022-10-04 02:00:00,,0830.9,4.99,0.00,29.9,28.6,00.0,38.6,31.7,24.0,0000.0,0003.75,0002.84,0002.65
2022-10-04 02:01:00,,0831.0,5.01,0.00,29.9,28.6,00.0,38.6,31.8,24.2,0000.0,0004.01,0002.85,0002.64
2022-10-04 02:02:00,,0831.0,4.99,0.00,29.9,28.6,00.0,38.6,31.7,24.2,0000.0,0004.16,0002.88,0002.64
2022-10-04 02:03:00,,0831.0,5.01,0.00,29.9,28.6,00.0,38.6,31.8,24.1,0000.0,0004.17,0002.86,0002.61
2022-10-04 02:04:00,,0831.0,5.00,0.00,29.9,28.6,00.0,38.7,31.8,23.9,0000.0,0004.16,0002.84,0002.59
2022-10-04 02:05:00,,0831.1,4.98,0.00,29.9,28.6,00.0,38.7,31.8,24.1,0000.0,0004.04,0002.82,0002.58
2022-10-04 02:06:00,,0831.1,5.01,0.00,29.9,28.7,00.0,38.7,31.8,24.4,0000.0,0004.07,0002.82,0002.57
2022-10-04 02:07:00,,0831.0,4.99,0.00,30.0,28.6,00.0,38.7,31.8,24.7,0000.0,0004.18,0002.86,0002.56
2022-10-04 02:08:00,,0831.0,5.00,0.00,30.0,28.7,00.0,38.7,31.8,24.9,0000.0,0004.17,0002.90,0002.57
2022-10-04 02:09:00,,0831.0,5.01,0.00,30.0,28.7,00.0,38.7,31.8,24.8,0000.0,0004.20,0002.93,0002.59
2022-10-04 02:10:00,,0831.0,4.99,0.00,30.0,28.7,00.0,38.7,31.8,24.4,0000.0,0004.27,0002.96,0002.60
2022-10-04 02:11:00,,0831.1,5.01,0.00,30.0,28.7,00.0,38.7,31.9,24.0,0000.0,0004.34,0002.98,0002.60
2022-10-04 02:12:00,,0831.1,5.00,0.00,30.0,28.7,00.0,38.7,31.9,24.1,0000.0,0004.19,0003.03,0002.63
2022-10-04 02:13:00,,0831.2,4.98,0.00,30.0,28.7,00.0,38.7,31.9,24.1,0000.0,0003.97,0003.00,0002.64
2022-10-04 02:14:00,,0831.2,5.01,0.00,30.0,28.7,00.0,38.7,31.9,23.7,0000.0,0004.05,0003.03,0002.65
2022-10-04 02:15:00,,0831.2,5.00,0.00,30.0,28.7,00.0,38.7,31.9,23.9,0000.0,0004.15,0003.05,0002.66
2022-10-04 02:16:00,,0831.2,4.99,0.00,30.0,28.7,00.0,38.7,31.9,23.6,0000.0,0004.17,0003.07,0002.67
2022-10-04 02:17:00,,0831.2,5.01,0.00,30.0,28.6,00.0,38.8,31.9,23.3,0000.0,0004.13,0003.07,0002.68
2022-10-04 02:18:00,,0831.2,5.01,0.00,30.0,28.6,00.0,38.8,31.9,23.3,0000.0,0004.04,0003.02,0002.69
2022-10-04 02:19:00,,0831.2,4.99,0.00,30.0,28.7,00.0,38.8,31.9,23.2,0000.0,0004.23,0003.01,0002.68
2022-10-04 02:20:00,,0831.2,5.00,0.00,30.0,28.7,00.0,38.8,31.9,23.2,0000.0,0004.36,0003.06,0002.68
2022-10-04 02:21:00,,0831.2,5.00,0.00,30.0,28.6,00.0,38.8,31.9,23.1,0000.0,0004.53,0003.11,0002.68
2022-10-04 02:22:00,,0831.1,4.98,0.00,30.0,28.6,00.0,38.8,31.9,22.9,0000.0,0004.57,0003.13,0002.68
2022-10-04 02:23:00,,0831.2,5.00,0.00,30.0,28.6,00.0,38.8,31.9,23.0,0000.0,0004.51,0003.10,0002.66
2022-10-04 02:24:00,,0831.2,5.00,0.00,30.0,28.6,00.0,38.8,31.9,23.1,0000.0,0004.53,0003.11,0002.67
2022-10-04 02:25:00,,0831.2,5.01,0.00,30.0,28.7,00.0,38.8,31.9,23.0,0000.0,0004.50,0003.12,0002.67
2022-10-04 02:26:00,,0831.2,5.00,0.00,30.1,28.7,00.0,38.8,31.9,23.0,0000.0,0004.46,0003.12,0002.67
2022-10-04 02:27:00,,0831.2,5.00,0.00,30.1,28.7,00.0,38.8,31.9,23.2,0000.0,0004.47,0003.11,0002.65
2022-10-04 02:28:00,,0831.2,5.00,0.00,30.1,28.7,00.0,38.8,31.9,24.9,0000.0,0004.56,0003.14,0002.64
2022-10-04 02:29:00,,0831.3,4.99,0.00,30.1,28.7,00.0,38.8,31.9,25.5,0000.0,0004.70,0003.18,0002.68
2022-10-04 02:30:00,,0831.3,5.00,0.00,30.1,28.7,00.0,38.8,31.9,25.4,0000.0,0004.49,0003.18,0002.70
2022-10-04 02:31:00,,0831.3,5.01,0.00,30.1,28.8,00.0,38.8,32.0,25.4,0000.0,0004.33,0003.16,0002.71
2022-10-04 02:32:00,,0831.4,4.99,0.00,30.1,28.8,00.0,38.8,32.0,25.7,0000.0,0004.20,0003.14,0002.73
2022-10-04 02:33:00,,0831.5,5.00,0.00,30.1,28.8,00.0,38.8,32.0,25.9,0000.0,0004.23,0003.16,0002.79
2022-10-04 02:34:00,,0831.4,5.01,0.00,30.1,28.8,00.0,38.8,32.0,26.1,0000.0,0004.39,0003.21,0002.85
2022-10-04 02:35:00,,0831.4,4.99,0.00,30.1,28.8,00.0,38.9,32.0,26.1,0000.0,0004.55,0003.24,0002.90
2022-10-04 02:36:00,,0831.4,5.01,0.00,30.1,28.8,00.0,38.9,32.0,25.7,0000.0,0004.59,0003.27,0002.96
2022-10-04 02:37:00,,0831.4,4.99,0.00,30.1,28.8,00.0,38.9,32.0,25.0,0000.0,0004.56,0003.27,0002.99
2022-10-04 02:38:00,,0831.3,5.01,0.00,30.1,28.8,00.0,38.9,32.0,25.6,0000.0,0004.60,0003.30,0003.05
2022-10-04 02:39:00,,0831.2,5.00,0.00,30.2,28.9,00.0,38.9,32.0,25.4,0000.0,0004.63,0003.32,0003.11
2022-10-04 02:40:00,,0831.2,4.99,0.00,30.2,28.9,00.0,38.9,32.0,25.0,0000.0,0004.61,0003.34,0003.13
2022-10-04 02:41:00,,0831.2,5.01,0.00,30.2,28.9,00.0,38.9,32.0,24.4,0000.0,0004.64,0003.35,0003.14
2022-10-04 02:42:00,,0831.2,5.00,0.00,30.2,28.9,00.0,38.9,32.0,24.3,0000.0,0004.78,0003.39,0003.16
2022-10-04 02:43:00,,0831.2,5.00,0.00,30.2,28.9,00.0,38.9,32.0,24.4,0000.0,0004.85,0003.41,0003.17
2022-10-04 02:44:00,,0831.2,5.01,0.00,30.2,28.8,00.0,38.9,32.0,24.7,0000.0,0004.90,0003.40,0003.17
2022-10-04 02:45:00,,0831.2,5.00,0.00,30.2,28.8,00.0,38.9,32.0,25.1,0000.0,0004.98,0003.40,0003.17
2022-10-04 02:46:00,,0831.2,5.01,0.00,30.2,28.8,00.0,38.9,32.0,25.6,0000.0,0004.97,0003.41,0003.18
2022-10-04 02:47:00,,0831.3,5.00,0.00,30.2,28.8,00.0,38.9,32.0,25.9,0000.0,0004.95,0003.43,0003.21
2022-10-04 02:48:00,,0831.3,5.01,0.00,30.2,28.8,00.0,38.9,32.0,25.7,0000.0,0005.19,0003.51,0003.26
2022-10-04 02:49:00,,0831.3,5.01,0.00,30.2,28.8,00.0,38.9,32.0,25.3,0000.0,0005.27,0003.54,0003.29
2022-10-04 02:50:00,,0831.3,4.99,0.00,30.2,28.7,00.0,39.0,32.0,25.6,0000.0,0005.42,0003.58,0003.32
2022-10-04 02:51:00,,0831.3,5.01,0.00,30.2,28.7,00.0,38.9,32.0,26.0,0000.0,0005.54,0003.62,0003.37
2022-10-04 02:52:00,,0831.3,5.01,0.00,30.2,28.7,00.0,38.9,32.0,26.6,0000.0,0005.66,0003.68,0003.42
2022-10-04 02:53:00,,0831.3,4.99,0.00,30.2,28.8,00.0,38.9,32.0,26.6,0000.0,0005.80,0003.75,0003.50
2022-10-04 02:54:00,,0831.4,5.00,0.00,30.2,28.7,00.0,39.0,32.0,26.0,0000.0,0005.93,0003.81,0003.58
2022-10-04 02:55:00,,0831.3,5.01,0.00,30.2,28.7,00.0,38.9,32.0,25.9,0000.0,0006.18,0003.90,0003.66
2022-10-04 02:56:00,,0831.3,5.00,0.00,30.2,28.7,00.0,39.0,32.0,25.9,0000.0,0006.33,0004.00,0003.74
2022-10-04 02:57:00,,0831.5,5.00,0.00,30.2,28.7,00.0,38.9,32.0,25.9,0000.0,0006.42,0004.05,0003.79
2022-10-04 02:58:00,,0831.4,5.01,0.00,30.2,28.7,00.0,38.9,32.0,25.8,0000.0,0006.55,0004.10,0003.83
2022-10-04 02:59:00,,0831.5,5.01,0.00,30.2,28.7,00.0,39.0,32.0,26.0,0000.0,0006.66,0004.13,0003.86
